TimeCST,TemperatureF,Dew PointF,Humidity,Sea Level PressureIn,VisibilityMPH,Wind Direction,Wind SpeedMPH,Gust SpeedMPH,PrecipitationIn,Events,Conditions,WindDirDegrees,DateUTC
12:15 AM,32.0,26.6,80,29.94,10.0,North,10.4,-,N/A,,Overcast,10,2012-12-08 06:15:00
12:35 AM,32.0,26.6,80,29.94,10.0,North,8.1,-,N/A,,Overcast,360,2012-12-08 06:35:00
12:55 AM,32.0,28.4,87,29.94,10.0,NNE,9.2,-,N/A,,Overcast,20,2012-12-08 06:55:00
1:15 AM,32.0,28.4,87,29.94,7.0,North,9.2,-,N/A,,Overcast,10,2012-12-08 07:15:00
1:35 AM,32.0,28.4,87,29.95,10.0,North,9.2,-,N/A,,Overcast,10,2012-12-08 07:35:00
1:55 AM,32.0,28.4,87,29.95,10.0,North,9.2,-,N/A,,Overcast,10,2012-12-08 07:55:00
2:15 AM,32.0,28.4,87,29.95,10.0,NNE,5.8,-,N/A,,Overcast,20,2012-12-08 08:15:00
2:35 AM,32.0,28.4,87,29.95,10.0,North,4.6,-,N/A,,Overcast,10,2012-12-08 08:35:00
2:55 AM,32.0,28.4,87,29.95,10.0,North,5.8,-,N/A,,Overcast,10,2012-12-08 08:55:00
3:15 AM,32.0,28.4,87,29.95,10.0,North,5.8,-,N/A,,Overcast,360,2012-12-08 09:15:00
3:35 AM,32.0,28.4,87,29.95,10.0,North,5.8,-,N/A,,Overcast,360,2012-12-08 09:35:00
3:55 AM,32.0,28.4,87,29.94,10.0,North,5.8,-,N/A,,Overcast,360,2012-12-08 09:55:00
4:15 AM,32.0,28.4,87,29.95,10.0,NNW,4.6,-,N/A,,Overcast,340,2012-12-08 10:15:00
4:35 AM,32.0,28.4,87,29.96,10.0,NNW,4.6,-,N/A,,Overcast,340,2012-12-08 10:35:00
4:55 AM,32.0,26.6,80,29.96,10.0,NNW,5.8,-,N/A,,Overcast,340,2012-12-08 10:55:00
5:15 AM,32.0,26.6,80,29.96,10.0,North,5.8,-,N/A,,Overcast,360,2012-12-08 11:15:00
5:35 AM,32.0,26.6,80,29.97,10.0,North,4.6,-,N/A,,Overcast,350,2012-12-08 11:35:00
5:55 AM,32.0,26.6,80,29.98,10.0,NNW,5.8,-,N/A,,Overcast,330,2012-12-08 11:55:00
6:15 AM,30.2,26.6,86,29.99,10.0,NNW,4.6,-,N/A,,Overcast,330,2012-12-08 12:15:00
6:35 AM,30.2,26.6,86,29.99,10.0,NNW,5.8,-,N/A,,Overcast,340,2012-12-08 12:35:00
6:55 AM,28.4,24.8,86,29.99,10.0,NNW,5.8,-,N/A,,Scattered Clouds,340,2012-12-08 12:55:00
7:15 AM,28.4,24.8,86,30.00,10.0,North,6.9,-,N/A,,Clear,360,2012-12-08 13:15:00
7:35 AM,28.4,23.0,80,30.00,10.0,North,8.1,-,N/A,,Clear,360,2012-12-08 13:35:00
7:55 AM,28.4,24.8,86,30.01,10.0,North,5.8,-,N/A,,Clear,360,2012-12-08 13:55:00
8:15 AM,28.4,24.8,86,30.01,10.0,North,8.1,-,N/A,,Clear,360,2012-12-08 14:15:00
8:55 AM,30.2,26.6,86,30.02,10.0,North,9.2,-,N/A,,Clear,360,2012-12-08 14:55:00
9:15 AM,32.0,26.6,80,30.03,10.0,NNE,10.4,-,N/A,,Clear,20,2012-12-08 15:15:00
9:35 AM,32.0,28.4,87,30.03,10.0,NNE,10.4,-,N/A,,Scattered Clouds,20,2012-12-08 15:35:00
10:15 AM,32.0,28.4,87,30.05,10.0,NE,9.2,-,N/A,,Overcast,40,2012-12-08 16:15:00
10:35 AM,32.0,28.4,87,30.04,10.0,ENE,9.2,-,N/A,,Scattered Clouds,60,2012-12-08 16:35:00
10:55 AM,33.8,28.4,81,30.04,10.0,NNE,5.8,-,N/A,,Mostly Cloudy,30,2012-12-08 16:55:00
11:15 AM,33.8,28.4,81,30.04,10.0,NE,5.8,-,N/A,,Mostly Cloudy,40,2012-12-08 17:15:00
11:35 AM,35.6,28.4,75,30.03,10.0,ENE,3.5,-,N/A,,Scattered Clouds,70,2012-12-08 17:35:00
11:55 AM,35.6,28.4,75,30.02,10.0,NE,6.9,-,N/A,,Clear,50,2012-12-08 17:55:00
12:15 PM,37.4,28.4,70,30.01,10.0,NE,6.9,-,N/A,,Clear,40,2012-12-08 18:15:00
12:35 PM,37.4,28.4,70,30.01,10.0,NNE,5.8,-,N/A,,Clear,30,2012-12-08 18:35:00
12:55 PM,37.4,26.6,65,30.01,10.0,NE,5.8,-,N/A,,Clear,40,2012-12-08 18:55:00
1:15 PM,37.4,28.4,70,30.01,10.0,East,3.5,-,N/A,,Scattered Clouds,90,2012-12-08 19:15:00
1:35 PM,37.4,26.6,65,30.02,10.0,East,3.5,-,N/A,,Overcast,100,2012-12-08 19:35:00
1:55 PM,37.4,26.6,65,30.02,10.0,East,5.8,-,N/A,,Overcast,80,2012-12-08 19:55:00
2:15 PM,39.2,26.6,61,30.01,10.0,East,4.6,-,N/A,,Overcast,100,2012-12-08 20:15:00
2:35 PM,37.4,26.6,65,30.02,10.0,East,3.5,-,N/A,,Overcast,80,2012-12-08 20:35:00
3:15 PM,37.4,26.6,65,30.03,10.0,ENE,8.1,-,N/A,,Clear,70,2012-12-08 21:15:00
3:35 PM,37.4,26.6,65,30.03,10.0,East,6.9,-,N/A,,Clear,90,2012-12-08 21:35:00
3:55 PM,35.6,28.4,75,30.04,10.0,ESE,4.6,-,N/A,,Clear,110,2012-12-08 21:55:00
4:15 PM,35.6,28.4,75,30.04,10.0,ESE,4.6,-,N/A,,Scattered Clouds,110,2012-12-08 22:15:00
4:35 PM,35.6,28.4,75,30.05,10.0,ESE,4.6,-,N/A,,Scattered Clouds,110,2012-12-08 22:35:00
4:55 PM,33.8,28.4,81,30.04,10.0,East,5.8,-,N/A,,Clear,80,2012-12-08 22:55:00
5:15 PM,33.8,28.4,81,30.04,10.0,East,5.8,-,N/A,,Clear,80,2012-12-08 23:15:00
5:35 PM,33.8,28.4,81,30.04,10.0,East,5.8,-,N/A,,Clear,90,2012-12-08 23:35:00
5:55 PM,33.8,28.4,81,30.04,10.0,East,6.9,-,N/A,,Clear,90,2012-12-08 23:55:00
6:15 PM,33.8,26.6,75,30.04,10.0,East,6.9,-,N/A,,Clear,90,2012-12-09 00:15:00
6:55 PM,33.8,28.4,81,30.05,10.0,East,8.1,-,N/A,,Clear,100,2012-12-09 00:55:00
7:35 PM,32.0,28.4,87,30.07,10.0,East,5.8,-,N/A,,Scattered Clouds,100,2012-12-09 01:35:00
7:55 PM,32.0,28.4,87,30.07,10.0,East,5.8,-,N/A,,Mostly Cloudy,90,2012-12-09 01:55:00
8:15 PM,32.0,28.4,87,30.06,10.0,East,6.9,-,N/A,,Overcast,90,2012-12-09 02:15:00
8:35 PM,32.0,28.4,87,30.05,10.0,East,9.2,-,N/A,,Overcast,90,2012-12-09 02:35:00
8:55 PM,32.0,28.4,87,30.05,10.0,East,11.5,-,N/A,,Scattered Clouds,90,2012-12-09 02:55:00
9:15 PM,32.0,28.4,87,30.05,10.0,East,9.2,-,N/A,,Scattered Clouds,90,2012-12-09 03:15:00
9:55 PM,32.0,28.4,87,30.05,10.0,East,9.2,-,N/A,,Overcast,90,2012-12-09 03:55:00
10:35 PM,32.0,28.4,87,30.04,10.0,East,10.4,-,N/A,,Mostly Cloudy,80,2012-12-09 04:35:00
10:55 PM,32.0,28.4,87,30.05,10.0,East,8.1,-,N/A,,Scattered Clouds,80,2012-12-09 04:55:00
11:15 PM,32.0,28.4,87,30.05,10.0,East,6.9,-,N/A,,Scattered Clouds,80,2012-12-09 05:15:00
11:55 PM,32.0,30.2,93,30.04,10.0,East,8.1,-,N/A,,Overcast,80,2012-12-09 05:55:00